Location: Mahannah Oil Field
(37.4664°N, 96.6003°W)
Time: 15:42:13
(UTC+00:00)

Vanguard 2 Rocket - Pass Details

Date: 30 January 2021
Orbit: 554 x 3325 km, 32.9° (Epoch: 06 March)

Event Time Altitude Azimuth Distance (km) Brightness Sun altitude
Rises 15:42:29 0° 191° (S) 6,996 11.9 21.0°
Reaches altitude 10° 15:49:17 10° 177° (S) 6,200 12.0 22.0°
Maximum altitude 16:01:37 20° 138° (SE) 5,394 14.3 23.7°
Drops below altitude 10° 16:13:04 10° 100° (E) 5,799 11.8 25.1°
Sets 16:18:53 0° 85° (E) 6,439 11.7 25.8°
